User: anonymous   Login
Location: Unspecified
(0.0000°N, 0.0000°E)
Time: 16:27:33
(UTC+00:00)
Language:

NNS O-29 - Orbit

View from above orbital plane
View from above orbital plane
View from above satellite
View from above satellite

Ground track
Ground track

The orbit data is extracted from the following two-line orbital elements,

1 18362U 87080B   18109.72147905  .00000026  00000-0  31451-4 0  9993
2 18362  90.3272 345.8182 0105238 321.4184 105.4799 13.44042712500017
Epoch (UTC): 19 April 2018 17:18:55
Eccentricity: 0.0105238
inclination: 90.3272°
perigee height: 1015 km
apogee height: 1173 km
right ascension of ascending node: 345.8182°
argument of perigee: 321.4184°
revolutions per day: 13.44042712
mean anomaly at epoch: 105.4799°
orbit number at epoch: 50001

The dashed part of the orbit path shows where the satellite is in the earth's shadow,  

DLR